YH8VA-1 Weather Reports


time (UTC)temp
F
wind
direction
speed
knots
gust
knots
rain 1hr
in
rain 24hr
in
rain mn
in
humidity
%
barometer
mb
20260507181632 90 0 0.0 0.0 0.00 0.00 0.00 61 998.0
20260507181110 89 0 0.0 0.0 0.00 0.00 0.00 61 998.0
20260507180548 88 0 0.0 0.0 0.00 0.00 0.00 63 998.0
20260507180026 90 0 0.0 0.0 0.00 0.00 0.00 60 998.0
20260507175504 90 0 0.0 0.0 0.00 0.00 0.00 60 998.0
20260507174942 90 0 0.0 0.0 0.00 0.00 0.00 61 998.0
20260507174420 90 0 0.0 0.0 0.00 0.00 0.00 60 998.0
20260507173858 90 0 0.0 0.0 0.00 0.00 0.00 60 998.0
20260507173336 90 0 0.0 0.0 0.00 0.00 0.00 60 998.0
20260507172814 90 0 0.0 0.0 0.00 0.00 0.00 60 998.0
20260507172252 90 0 0.0 0.0 0.00 0.00 0.00 61 998.0
20260507171730 90 0 0.0 0.0 0.00 0.00 0.00 61 998.0
20260507171208 90 0 0.0 0.0 0.00 0.00 0.00 60 998.0
20260507170646 90 0 0.0 0.0 0.00 0.00 0.00 60 998.0
20260507170124 90 0 0.0 0.0 0.00 0.00 0.00 60 998.0
20260507165602 90 0 0.0 0.0 0.00 0.00 0.00 60 998.0
20260507165040 90 0 0.0 0.0 0.00 0.00 0.00 61 998.0
20260507164518 90 0 0.0 0.0 0.00 0.00 0.00 61 998.0
20260507163956 90 0 0.0 0.0 0.00 0.00 0.00 61 998.0
20260507163434 90 0 0.0 0.0 0.00 0.00 0.00 61 998.0
20260507162912 90 0 0.0 0.0 0.00 0.00 0.00 61 998.0
20260507162350 90 0 0.0 0.0 0.00 0.00 0.00 61 998.0
20260507155205 91 0 0.0 0.0 0.00 0.00 0.00 60 999.0
20260507154643 91 0 0.0 0.0 0.00 0.00 0.00 60 999.0
20260507154121 91 0 0.0 0.0 0.00 0.00 0.00 60 999.0
20260507153559 91 0 0.0 0.0 0.00 0.00 0.00 60 999.0
20260507153037 91 0 0.0 0.0 0.00 0.00 0.00 60 999.0
20260507152515 91 0 0.0 0.0 0.00 0.00 0.00 60 999.0
20260507151953 91 0 0.0 0.0 0.00 0.00 0.00 60 999.0
20260507151431 91 0 0.0 0.0 0.00 0.00 0.00 60 999.0
20260507150909 91 0 0.0 0.0 0.00 0.00 0.00 61 999.0
20260507150347 91 0 0.0 0.0 0.00 0.00 0.00 61 999.0
20260507145826 90 0 0.0 0.0 0.00 0.00 0.00 62 999.0
20260507145306 88 0 0.0 0.0 0.00 0.00 0.00 65 999.0
20260507144741 84 0 0.0 0.0 0.00 0.00 0.00 73 999.0
20260507142401 91 0 0.0 0.0 0.00 0.00 0.00 60 999.0
20260507141839 91 0 0.0 0.0 0.00 0.00 0.00 60 999.0
20260507141317 91 0 0.0 0.0 0.00 0.00 0.00 60 999.0
20260507140755 91 0 0.0 0.0 0.00 0.00 0.00 60 999.0
20260507140233 91 0 0.0 0.0 0.00 0.00 0.00 60 999.0
20260507135711 91 0 0.0 0.0 0.00 0.00 0.00 60 999.0
20260507135149 91 0 0.0 0.0 0.00 0.00 0.00 60 999.0
20260507134627 91 0 0.0 0.0 0.00 0.00 0.00 60 999.0
20260507134105 91 0 0.0 0.0 0.00 0.00 0.00 60 999.0
20260507133543 91 0 0.0 0.0 0.00 0.00 0.00 60 999.0
20260507133021 91 0 0.0 0.0 0.00 0.00 0.00 60 999.0
20260507132459 91 0 0.0 0.0 0.00 0.00 0.00 61 999.0
20260507131937 91 0 0.0 0.0 0.00 0.00 0.00 61 999.0
20260507131416 90 0 0.0 0.0 0.00 0.00 0.00 62 999.0
20260507130852 89 0 0.0 0.0 0.00 0.00 0.00 66 999.0
20260507130329 85 0 0.0 0.0 0.00 0.00 0.00 73 999.0
20260507130243 84 0 0.0 0.0 0.00 0.00 0.00 75 999.0
20260507124009 92 0 0.0 0.0 0.00 0.00 0.00 60 999.0
20260507123447 92 0 0.0 0.0 0.00 0.00 0.00 60 999.0
20260507122925 92 0 0.0 0.0 0.00 0.00 0.00 60 999.0
20260507122403 92 0 0.0 0.0 0.00 0.00 0.00 60 999.0
20260507121840 92 0 0.0 0.0 0.00 0.00 0.00 60 999.0
20260507121318 91 0 0.0 0.0 0.00 0.00 0.00 61 999.0
20260507120757 92 0 0.0 0.0 0.00 0.00 0.00 60 999.0
20260507120233 92 0 0.0 0.0 0.00 0.00 0.00 60 999.0
20260507115710 92 0 0.0 0.0 0.00 0.00 0.00 60 999.0
20260507115148 92 0 0.0 0.0 0.00 0.00 0.00 60 999.0
20260507114626 92 0 0.0 0.0 0.00 0.00 0.00 60 999.0
20260507114104 92 0 0.0 0.0 0.00 0.00 0.00 60 999.0
20260507113541 92 0 0.0 0.0 0.00 0.00 0.00 60 999.0
20260507113019 92 0 0.0 0.0 0.00 0.00 0.00 60 999.0
20260507112457 92 0 0.0 0.0 0.00 0.00 0.00 60 999.0
20260507111934 92 0 0.0 0.0 0.00 0.00 0.00 60 999.0
20260507111411 92 0 0.0 0.0 0.00 0.00 0.00 60 999.0
20260507110849 92 0 0.0 0.0 0.00 0.00 0.00 60 999.0
20260507110326 92 0 0.0 0.0 0.00 0.00 0.00 60 999.0
20260507105802 92 0 0.0 0.0 0.00 0.00 0.00 60 999.0
20260507105240 92 0 0.0 0.0 0.00 0.00 0.00 60 999.0
20260507104718 92 0 0.0 0.0 0.00 0.00 0.00 60 999.0
20260507104155 92 0 0.0 0.0 0.00 0.00 0.00 60 999.0
20260507103633 92 0 0.0 0.0 0.00 0.00 0.00 60 998.0
20260507103111 92 0 0.0 0.0 0.00 0.00 0.00 60 998.0
20260507102549 92 0 0.0 0.0 0.00 0.00 0.00 60 998.0
20260507102026 92 0 0.0 0.0 0.00 0.00 0.00 60 998.0
20260507101504 92 0 0.0 0.0 0.00 0.00 0.00 60 998.0
20260507100942 92 0 0.0 0.0 0.00 0.00 0.00 60 998.0
20260507100419 92 0 0.0 0.0 0.00 0.00 0.00 60 998.0
20260507095908 92 0 0.0 0.0 0.00 0.00 0.00 60 998.0
20260507095335 92 0 0.0 0.0 0.00 0.00 0.00 60 998.0
20260507094813 92 0 0.0 0.0 0.00 0.00 0.00 60 998.0
20260507094251 92 0 0.0 0.0 0.00 0.00 0.00 59 998.0
20260507093729 92 0 0.0 0.0 0.00 0.00 0.00 60 998.0
20260507093207 92 0 0.0 0.0 0.00 0.00 0.00 60 997.0
20260507092644 92 0 0.0 0.0 0.00 0.00 0.00 60 997.0
20260507092122 92 0 0.0 0.0 0.00 0.00 0.00 60 997.0
20260507091600 92 0 0.0 0.0 0.00 0.00 0.00 60 997.0
20260507091038 92 0 0.0 0.0 0.00 0.00 0.00 60 997.0
20260507090516 92 0 0.0 0.0 0.00 0.00 0.00 59 997.0
20260507083958 91 0 0.0 0.0 0.00 0.00 0.00 61 997.0
20260507083436 92 0 0.0 0.0 0.00 0.00 0.00 60 997.0
20260507082914 92 0 0.0 0.0 0.00 0.00 0.00 60 997.0
20260507082352 93 0 0.0 0.0 0.00 0.00 0.00 60 997.0
20260507081830 93 0 0.0 0.0 0.00 0.00 0.00 60 997.0
20260507081308 91 0 0.0 0.0 0.00 0.00 0.00 62 997.0
20260507080745 93 0 0.0 0.0 0.00 0.00 0.00 60 997.0
20260507080223 92 0 0.0 0.0 0.00 0.00 0.00 62 997.0
20260507075701 93 0 0.0 0.0 0.00 0.00 0.00 59 997.0
20260507075139 93 0 0.0 0.0 0.00 0.00 0.00 59 997.0
20260507074617 93 0 0.0 0.0 0.00 0.00 0.00 59 997.0
20260507074055 92 0 0.0 0.0 0.00 0.00 0.00 61 997.0
20260507073534 93 0 0.0 0.0 0.00 0.00 0.00 60 997.0
20260507073011 93 0 0.0 0.0 0.00 0.00 0.00 60 997.0
20260507072448 93 0 0.0 0.0 0.00 0.00 0.00 59 996.0
20260507071926 93 0 0.0 0.0 0.00 0.00 0.00 59 996.0
20260507071404 93 0 0.0 0.0 0.00 0.00 0.00 60 996.0
20260507070841 93 0 0.0 0.0 0.00 0.00 0.00 59 997.0
20260507070319 93 0 0.0 0.0 0.00 0.00 0.00 59 996.0
20260507065757 93 0 0.0 0.0 0.00 0.00 0.00 59 996.0
20260507065235 93 0 0.0 0.0 0.00 0.00 0.00 59 996.0
20260507064713 93 0 0.0 0.0 0.00 0.00 0.00 59 996.0
20260507064150 93 0 0.0 0.0 0.00 0.00 0.00 59 996.0
20260507063628 93 0 0.0 0.0 0.00 0.00 0.00 59 996.0
20260507063106 93 0 0.0 0.0 0.00 0.00 0.00 59 996.0
20260507062544 93 0 0.0 0.0 0.00 0.00 0.00 59 996.0
20260507062022 93 0 0.0 0.0 0.00 0.00 0.00 59 996.0
20260507061501 93 0 0.0 0.0 0.00 0.00 0.00 59 996.0
20260507060939 93 0 0.0 0.0 0.00 0.00 0.00 59 996.0
20260507060415 92 0 0.0 0.0 0.00 0.00 0.00 60 996.0
20260507055853 94 0 0.0 0.0 0.00 0.00 0.00 58 996.0
20260507055331 94 0 0.0 0.0 0.00 0.00 0.00 58 996.0
20260507054808 94 0 0.0 0.0 0.00 0.00 0.00 58 996.0
20260507054246 93 0 0.0 0.0 0.00 0.00 0.00 60 997.0
20260507053724 94 0 0.0 0.0 0.00 0.00 0.00 58 997.0
20260507053202 91 0 0.0 0.0 0.00 0.00 0.00 62 997.0
20260507050904 93 0 0.0 0.0 0.00 0.00 0.00 59 997.0
20260507050342 94 0 0.0 0.0 0.00 0.00 0.00 59 997.0
20260507045820 94 0 0.0 0.0 0.00 0.00 0.00 59 997.0
20260507045257 93 0 0.0 0.0 0.00 0.00 0.00 59 997.0
20260507044735 92 0 0.0 0.0 0.00 0.00 0.00 61 997.0
20260507044213 93 0 0.0 0.0 0.00 0.00 0.00 59 997.0
20260507043651 93 0 0.0 0.0 0.00 0.00 0.00 59 997.0
20260507043130 92 0 0.0 0.0 0.00 0.00 0.00 61 997.0
20260507042607 93 0 0.0 0.0 0.00 0.00 0.00 59 997.0
20260507042045 93 0 0.0 0.0 0.00 0.00 0.00 59 997.0
20260507041523 93 0 0.0 0.0 0.00 0.00 0.00 59 998.0
20260507041001 91 0 0.0 0.0 0.00 0.00 0.00 62 998.0
20260507040439 93 0 0.0 0.0 0.00 0.00 0.00 59 998.0
20260507035917 93 0 0.0 0.0 0.00 0.00 0.00 59 998.0
20260507035355 93 0 0.0 0.0 0.00 0.00 0.00 59 998.0
20260507034833 93 0 0.0 0.0 0.00 0.00 0.00 59 998.0
20260507034311 93 0 0.0 0.0 0.00 0.00 0.00 59 998.0
20260507033749 93 0 0.0 0.0 0.00 0.00 0.00 59 998.0
20260507033227 92 0 0.0 0.0 0.00 0.00 0.00 61 998.0
20260507032704 92 0 0.0 0.0 0.00 0.00 0.00 61 998.0
20260507032142 93 0 0.0 0.0 0.00 0.00 0.00 59 998.0
20260507031620 92 0 0.0 0.0 0.00 0.00 0.00 60 998.0
20260507031058 92 0 0.0 0.0 0.00 0.00 0.00 61 998.0
20260507030535 93 0 0.0 0.0 0.00 0.00 0.00 60 998.0
20260507030013 93 0 0.0 0.0 0.00 0.00 0.00 59 998.0
20260507025450 93 0 0.0 0.0 0.00 0.00 0.00 59 999.0
20260507024928 94 0 0.0 0.0 0.00 0.00 0.00 57 999.0
20260507024406 94 0 0.0 0.0 0.00 0.00 0.00 57 999.0
20260507023844 93 0 0.0 0.0 0.00 0.00 0.00 59 999.0
20260507023322 92 0 0.0 0.0 0.00 0.00 0.00 60 999.0
20260507022800 93 0 0.0 0.0 0.00 0.00 0.00 59 999.0
20260507022238 93 0 0.0 0.0 0.00 0.00 0.00 59 999.0
20260507021716 93 0 0.0 0.0 0.00 0.00 0.00 59 999.0
20260507021153 93 0 0.0 0.0 0.00 0.00 0.00 59 999.0
20260507020631 92 0 0.0 0.0 0.00 0.00 0.00 60 999.0
20260507020108 91 0 0.0 0.0 0.00 0.00 0.00 61 999.0
20260507015546 91 0 0.0 0.0 0.00 0.00 0.00 61 999.0
20260507015024 91 0 0.0 0.0 0.00 0.00 0.00 61 999.0
20260507014502 91 0 0.0 0.0 0.00 0.00 0.00 61 999.0
20260507013940 92 0 0.0 0.0 0.00 0.00 0.00 59 999.0
20260507013418 91 0 0.0 0.0 0.00 0.00 0.00 61 999.0
20260507012856 91 0 0.0 0.0 0.00 0.00 0.00 61 999.0
20260507012334 94 0 0.0 0.0 0.00 0.00 0.00 58 999.0
20260507011812 93 0 0.0 0.0 0.00 0.00 0.00 58 999.0
20260507011249 93 0 0.0 0.0 0.00 0.00 0.00 59 1000.0
20260507010727 94 0 0.0 0.0 0.00 0.00 0.00 58 999.0
20260507010206 92 0 0.0 0.0 0.00 0.00 0.00 60 999.0
20260507005643 93 0 0.0 0.0 0.00 0.00 0.00 58 999.0
20260507005121 93 0 0.0 0.0 0.00 0.00 0.00 58 999.0
20260507004559 93 0 0.0 0.0 0.00 0.00 0.00 59 999.0
20260507004037 93 0 0.0 0.0 0.00 0.00 0.00 59 1000.0
20260507003515 93 0 0.0 0.0 0.00 0.00 0.00 59 1000.0
20260507002953 93 0 0.0 0.0 0.00 0.00 0.00 58 1000.0
20260507002431 92 0 0.0 0.0 0.00 0.00 0.00 59 1000.0
20260507001909 91 0 0.0 0.0 0.00 0.00 0.00 61 1000.0
20260507001347 92 0 0.0 0.0 0.00 0.00 0.00 60 1000.0
20260507000825 92 0 0.0 0.0 0.00 0.00 0.00 59 1000.0
20260507000303 92 0 0.0 0.0 0.00 0.00 0.00 59 1000.0
20260506235741 92 0 0.0 0.0 0.00 0.00 0.00 59 1000.0
20260506235219 92 0 0.0 0.0 0.00 0.00 0.00 59 1000.0
20260506234657 91 0 0.0 0.0 0.00 0.00 0.00 60 1000.0
20260506234135 91 0 0.0 0.0 0.00 0.00 0.00 59 1000.0
20260506233613 91 0 0.0 0.0 0.00 0.00 0.00 60 1000.0
20260506233051 90 0 0.0 0.0 0.00 0.00 0.00 62 1000.0
20260506232529 91 0 0.0 0.0 0.00 0.00 0.00 60 999.0
20260506232007 91 0 0.0 0.0 0.00 0.00 0.00 60 999.0
20260506231446 90 0 0.0 0.0 0.00 0.00 0.00 61 999.0
20260506230923 90 0 0.0 0.0 0.00 0.00 0.00 61 999.0
20260506230401 90 0 0.0 0.0 0.00 0.00 0.00 61 999.0
20260506225839 90 0 0.0 0.0 0.00 0.00 0.00 61 999.0
20260506225317 90 0 0.0 0.0 0.00 0.00 0.00 60 999.0
20260506224755 90 0 0.0 0.0 0.00 0.00 0.00 60 999.0
20260506224233 90 0 0.0 0.0 0.00 0.00 0.00 60 999.0
20260506223711 90 0 0.0 0.0 0.00 0.00 0.00 60 999.0
20260506223149 90 0 0.0 0.0 0.00 0.00 0.00 60 999.0
20260506222627 90 0 0.0 0.0 0.00 0.00 0.00 60 999.0
20260506222105 90 0 0.0 0.0 0.00 0.00 0.00 60 999.0
20260506221543 90 0 0.0 0.0 0.00 0.00 0.00 60 999.0
20260506221021 90 0 0.0 0.0 0.00 0.00 0.00 60 999.0
20260506220459 90 0 0.0 0.0 0.00 0.00 0.00 60 999.0
20260506215936 90 0 0.0 0.0 0.00 0.00 0.00 60 999.0
20260506215415 90 0 0.0 0.0 0.00 0.00 0.00 60 999.0
20260506214853 90 0 0.0 0.0 0.00 0.00 0.00 60 998.0
20260506214331 89 0 0.0 0.0 0.00 0.00 0.00 60 998.0
20260506213809 90 0 0.0 0.0 0.00 0.00 0.00 60 998.0
20260506213247 90 0 0.0 0.0 0.00 0.00 0.00 60 998.0
20260506212725 90 0 0.0 0.0 0.00 0.00 0.00 60 998.0
20260506212203 90 0 0.0 0.0 0.00 0.00 0.00 60 998.0
20260506211641 90 0 0.0 0.0 0.00 0.00 0.00 60 998.0
20260506211118 90 0 0.0 0.0 0.00 0.00 0.00 60 998.0
20260506210556 90 0 0.0 0.0 0.00 0.00 0.00 60 998.0
20260506210034 90 0 0.0 0.0 0.00 0.00 0.00 60 998.0
20260506205512 90 0 0.0 0.0 0.00 0.00 0.00 60 998.0
20260506204950 90 0 0.0 0.0 0.00 0.00 0.00 60 998.0
20260506204428 90 0 0.0 0.0 0.00 0.00 0.00 60 998.0
20260506203906 90 0 0.0 0.0 0.00 0.00 0.00 60 998.0
20260506203344 90 0 0.0 0.0 0.00 0.00 0.00 60 998.0
20260506202822 90 0 0.0 0.0 0.00 0.00 0.00 60 998.0
20260506202300 90 0 0.0 0.0 0.00 0.00 0.00 60 998.0
20260506201738 90 0 0.0 0.0 0.00 0.00 0.00 60 998.0
20260506201216 90 0 0.0 0.0 0.00 0.00 0.00 60 998.0
20260506200655 90 0 0.0 0.0 0.00 0.00 0.00 60 998.0
20260506200132 90 0 0.0 0.0 0.00 0.00 0.00 60 998.0
20260506195610 90 0 0.0 0.0 0.00 0.00 0.00 60 998.0
20260506195048 90 0 0.0 0.0 0.00 0.00 0.00 60 998.0
20260506194527 90 0 0.0 0.0 0.00 0.00 0.00 60 998.0
20260506194004 90 0 0.0 0.0 0.00 0.00 0.00 60 998.0
20260506193442 90 0 0.0 0.0 0.00 0.00 0.00 60 998.0
20260506192920 90 0 0.0 0.0 0.00 0.00 0.00 60 998.0
20260506192358 90 0 0.0 0.0 0.00 0.00 0.00 60 998.0
20260506185843 90 0 0.0 0.0 0.00 0.00 0.00 60 998.0
20260506185321 90 0 0.0 0.0 0.00 0.00 0.00 60 998.0
20260506182135 90 0 0.0 0.0 0.00 0.00 0.00 59 999.0